Location: Oberwangen
(47.4286°N, 8.9679°E)
Time: 13:29:46
(UTC+00:00)

Cosmos 1459 Rocket - Pass Details

Date: 20 June 2021
Orbit: 937 x 999 km, 83.0° (Epoch: 02 August)

Event Time Altitude Azimuth Distance (km) Brightness Sun altitude
Rises 20:48:30 0° 348° (NNW) 3,611 8.3 -10.8°
Reaches altitude 10° 20:51:01 10° 346° (NNW) 2,661 7.5 -11.0°
Maximum altitude 20:56:59 63° 267° (W) 1,044 4.3 -11.6°
Drops below altitude 10° 21:02:56 10° 187° (S) 2,656 5.8 -12.2°
Enters shadow 21:03:32 - 186° (S) 2,875 6.0 -12.2°
